Location: Angres
(50.4057°N, 2.7605°E)
Time: 02:47:13
(UTC+00:00)

Daily predictions for brighter satellites

Satellite Brightness Start Highest point End
(mag) Time Altitude Azimuth Time Altitude Azimuth Time Altitude Azimuth
SL-16 R/B 4.3 00:16:47 25° NE 00:16:47 25° NE 00:20:34 10° N
SL-16 R/B 4.4 00:39:05 21° N 00:39:05 21° N 00:41:00 10° NNE
Resurs 1-4 Rocket 3.8 01:34:54 10° NNE 01:37:26 29° NNE 01:37:26 29° NNE
Cosmos 1697 Rocket 4.1 01:36:04 10° NNW 01:41:11 34° NE 01:46:18 10° ESE
CZ-2D R/B 3.7 01:40:09 10° NNE 01:42:56 32° NNE 01:42:56 32° NNE
IDEFIX/ARIANE 42P 4.0 01:48:35 10° NNE 01:51:47 36° NE 01:51:47 36° NE
SL-16 R/B 3.9 02:01:53 29° NNW 02:01:53 29° NNW 02:04:49 10° NNW
Lacrosse 4 Rocket 4.5 02:18:22 10° N 02:20:34 14° NNE 02:22:46 10° ENE
SL-16 R/B 4.4 02:20:57 14° NNW 02:21:18 14° NNW 02:24:15 10° N
Cosmos 1980 Rocket 3.6 02:16:54 10° NNW 02:22:02 35° NE 02:27:08 10° ESE
ADEOS II 3.0 02:19:34 10° NNE 02:23:08 44° N 02:23:08 44° N
ATLAS 5 CENTAUR R/B 3.8 02:42:00 17° NNW 02:42:17 18° N 02:45:31 10° NE
Cosmos 1833 Rocket 2.8 03:01:05 58° SSE 03:02:00 68° ESE 03:07:39 10° NNE
MSX 4.0 02:57:34 10° N 03:02:58 56° WNW 03:02:58 56° WNW
FENGYUN 3A 3.9 02:58:12 10° NNE 03:03:36 67° ESE 03:05:03 47° SSE
Cosmos 1447 Rocket 4.5 03:01:09 10° N 03:07:31 83° E 03:13:47 10° S
Cosmos 1371 Rocket 4.2 03:10:55 49° SSE 03:12:10 66° ESE 03:17:22 10° NNE
Meteor 1-4 Rocket 3.6 03:09:37 10° N 03:12:36 44° NE 03:12:36 44° NE
USA 307 3.3 03:13:49 55° ESE 03:13:49 55° ESE 03:17:21 10° ENE
ATLAS CENTAUR R/B 2.4 03:12:30 43° SSE 03:13:20 48° ESE 03:18:01 10° NE
Resurs 1-4 Rocket 3.8 03:15:41 10° N 03:18:30 19° NW 03:18:30 19° NW
ERBS 4.3 03:21:13 23° NE 03:21:13 23° NE 03:22:31 10° NE
Cosmos 1934 Rocket 4.2 03:22:36 48° W 03:23:13 49° WNW 03:29:21 10° N
Cosmos 2082 Rocket 3.2 03:19:36 18° S 03:23:22 42° ESE 03:28:39 10° NE
USA 306 2.8 03:24:27 77° ESE 03:24:27 77° ESE 03:28:22 10° ENE
CZ-2D R/B 3.8 03:21:13 10° N 03:24:14 19° NW 03:24:14 19° NW
Cosmos 1697 Rocket 3.5 03:19:56 10° NW 03:27:50 32° S 03:30:55 10° S
ALOS 2.1 03:25:42 10° NNE 03:30:24 87° WNW 03:31:32 52° SSW
CZ-2C R/B 2.9 03:25:43 10° SSE 03:30:54 66° ENE 03:36:15 10° N
BREEZE-M DEB (TANK) 3.1 03:32:42 40° ESE 03:32:42 40° ESE 03:34:15 10° E
Meteor 1-11 Rocket 3.7 03:26:12 10° NNW 03:32:13 83° W 03:38:09 10° S
BREEZE-M R/B 4.3 03:30:32 43° W 03:32:52 85° S 03:45:11 10° E
IDEFIX/ARIANE 42P 3.8 03:28:43 10° N 03:32:34 26° NW 03:32:34 26° NW
EO 1 Del DPAF 4.3 03:29:46 10° N 03:31:37 30° N 03:31:37 30° N
Cosmos 1743 2.5 03:31:37 10° N 03:35:15 81° NNW 03:35:15 81° NNW
Cosmos 1605 Rocket 3.9 03:33:49 42° SW 03:35:43 60° WNW 03:41:47 10° N
CZ-2C R/B 2.4 03:31:25 10° NNE 03:36:28 85° ESE 03:38:51 31° SSW
CBERS-1 3.9 03:31:58 10° NNE 03:37:06 74° WNW 03:38:49 42° SW
COSMOS 2406 3.4 03:34:02 27° S 03:37:12 68° ESE 03:42:51 10° NNE
Cosmos 1954 Rocket 3.9 03:32:35 10° NNW 03:37:45 61° WSW 03:42:55 10° S
PAYLOAD A 3.8 03:35:37 10° NNE 03:40:27 87° ESE 03:43:09 27° SSW
Cosmos 2056 Rocket 3.3 03:40:20 43° SW 03:42:03 79° WNW 03:47:12 10° NNE
IRS-1D 3.9 03:37:38 10° N 03:42:39 43° WNW 03:43:26 41° W
Cosmos 1441 Rocket 3.2 03:42:09 49° S 03:43:04 76° E 03:46:51 10° NNE
DELTA 2 DEB (DPAF) 4.3 03:40:33 10° SSE 03:44:55 72° ENE 03:49:20 10° N
Cosmos 1633 Rocket 3.0 03:41:09 10° NNW 03:45:24 55° W 03:45:36 54° WSW
USA 308 2.7 03:46:41 61° WSW 03:47:22 89° NNW 03:51:30 10° ENE
Cosmos 1420 Rocket 3.9 03:46:30 34° SSW 03:48:50 81° WNW 03:54:05 10° NNE
X-37B 2.3 03:50:05 22° SSE 03:50:05 22° SSE 03:51:36 10° ESE
YAOGAN 6 3.8 03:50:56 10° NNE 03:54:26 43° E 03:57:53 10° S
Cosmos 2322 Rocket 3.7 03:52:49 10° NNW 03:58:08 38° NE 04:03:23 10° ESE
Cosmos 1933 Rocket 3.7 03:53:59 10° N 03:58:27 76° E 04:02:51 10° SSE
Cosmos 1666 Rocket 4.4 03:55:42 10° NNW 03:59:05 32° WNW 03:59:05 32° WNW
Lacrosse 4 Rocket 2.4 03:55:57 10° NNW 04:00:11 49° NE 04:04:29 10° SE
Meteor 2-13 Rocket 4.3 03:55:49 10° NNW 04:01:58 77° W 04:08:07 10° S
Cosmos 1536 3.0 03:58:28 10° NNW 04:02:22 46° W 04:03:44 32° SW
Cosmos 1328 Rocket 3.6 04:00:53 33° SW 04:02:39 57° WNW 04:07:02 10° N
Cosmos 1741 Rocket 4.1 03:57:24 10° NNW 04:02:40 81° ENE 04:07:53 10° SSE
ADEOS II 3.8 04:00:39 10° NNW 04:03:44 16° NW 04:04:03 16° WNW
Cosmos 1151 Rocket 3.7 04:05:02 33° W 04:05:17 33° WNW 04:09:12 10° N
Helios 1B rocket 2.3 04:01:41 10° N 04:05:44 66° WNW 04:07:56 26° SSW
Cosmos 1980 Rocket 2.3 04:00:50 10° NW 04:06:15 51° WSW 04:11:38 10° S
Cosmos 1346 Rocket 3.1 04:06:06 39° WSW 04:06:50 44° WNW 04:10:40 10° N
Cosmos 2173 Rocket 3.9 04:04:14 10° S 04:10:20 84° W 04:16:29 10° N
IKONOS-2 4.4 04:07:33 10° SSE 04:11:47 79° WSW 04:16:03 10° NNW
Meteor 2-9 Rocket 4.2 04:06:07 10° NNW 04:11:56 87° W 04:17:32 10° S
USA 305 2.9 04:12:19 32° W 04:14:03 64° NNW 04:18:10 10° ENE
GP-B 3.3 04:09:52 10° S 04:14:17 75° E 04:18:44 10° N
Cosmos 2369 4.1 04:12:17 10° NW 04:17:33 40° WSW 04:22:46 10° S
ARIANE 5 R/B 2.4 04:13:12 10° NNE 04:18:15 73° WNW 04:23:13 10° SSW
IRS-1C 4.1 04:15:25 10° N 04:20:42 63° WNW 04:25:58 10° SSW
CZ-2D R/B 3.2 04:19:07 10° NNE 04:23:05 76° WNW 04:27:05 10° SSW
Cosmos 2278 3.6 04:18:50 10° NW 04:24:27 65° WSW 04:30:01 10° SSE
SL-08 R/B 3.3 04:20:58 10° S 04:25:35 59° W 04:30:18 10° NNW
SL-16 R/B 2.5 04:21:08 10° NNW 04:26:50 73° ENE 04:32:30 10° SE
Cosmos 1515 Rocket 3.6 04:22:30 10° SSW 04:26:53 61° WNW 04:31:20 10° N
ATLAS 5 CENTAUR R/B 4.0 04:24:50 10° NNW 04:28:26 21° NNE 04:32:34 10° ENE
Centaur D AC-29 4.4 04:23:18 10° SSW 04:29:33 20° SSE 04:49:12 10° ESE
Cosmos 1470 Rocket 4.2 04:27:19 10° NNW 04:31:10 32° W 04:35:02 10° SSW
BREEZE M DEB (TANK) 4.0 04:20:45 13° SW 04:31:57 57° SSE 04:35:48 10° E
Cosmos 1110 Rocket 4.4 04:27:00 10° S 04:32:09 66° ESE 04:37:18 10° NNE
Meteor 1-27 Rocket 4.0 04:27:06 10° SSW 04:32:44 51° WNW 04:38:30 10° N
MINOTAUR 4 R/B 4.4 04:31:02 10° SSE 04:34:30 66° ENE 04:37:59 10° N
Cosmos 2228 Rocket 4.0 04:30:20 10° S 04:34:40 52° E 04:39:00 10° NNE
Cosmos 1452 Rocket 3.5 04:29:25 10° SSW 04:34:43 85° WNW 04:40:02 10° NNE
Envisat 2.9 04:35:40 10° NNE 04:40:46 76° WNW 04:45:50 10° SSW
CZ-4C R/B 3.5 04:38:17 10° S 04:42:29 67° WSW 04:46:50 10° NNW
Cosmos 1484 Rocket 3.2 04:40:59 10° N 04:44:47 44° WNW 04:48:34 10° SW
Cosmos 44 Rocket 3.4 04:41:08 14° WSW 04:45:02 57° NW 04:49:42 10° NE
Meteor 1-18 Rocket 4.4 04:39:58 10° S 04:45:41 80° E 04:51:19 10° NNE
Cosmos 1833 Rocket 3.7 04:42:48 15° W 04:46:26 29° NW 04:51:19 10° NNE
Okean 1 3.5 04:42:31 10° SSW 04:46:27 49° WNW 04:50:23 10° N
Cosmos 1378 3.1 04:43:17 10° SSW 04:46:51 54° WNW 04:50:27 10° N
Cosmos 2100 Rocket 4.2 04:41:37 10° SW 04:47:28 46° WNW 04:53:24 10° N
OPS 6432 4.0 04:45:54 10° NW 04:48:51 73° SW 04:52:06 10° SE
Meteor 1-29 2.9 04:46:05 10° N 04:49:21 57° WNW 04:52:35 10° SSW
Cosmos 968 Rocket 3.7 04:45:25 10° NNW 04:50:38 77° ENE 04:55:46 10° SSE
SJ 16-02 4.1 04:48:52 10° N 04:51:53 18° NE 04:54:53 10° E
ATLAS CENTAUR R/B 2.5 04:48:29 14° WSW 04:52:14 39° NW 04:56:46 10° NNE
USA 307 3.2 04:49:22 15° W 04:52:43 56° N 04:56:49 10° ENE
CENTAUR R/B 2.6 04:47:01 10° SW 04:52:59 89° NW 05:00:21 10° NE
Cosmos 2016 Rocket 4.1 04:46:51 10° SSW 04:53:10 65° WNW 04:59:32 10° N
Cosmos 2219 Rocket 3.9 04:48:26 10° NNW 04:53:31 33° NE 04:58:34 10° ESE
SL-08 R/B 4.4 04:47:40 10° SSW 04:53:45 74° WNW 04:59:56 10° N
COSMOS 2455 3.4 04:48:43 10° NNW 04:54:44 63° NE 05:00:42 10° SE
ERBS 3.7 04:52:38 11° WNW 04:54:48 22° N 04:57:10 10° NE
Cosmos 2333 Rocket 3.4 04:51:53 10° NNW 04:57:22 44° NE 05:02:46 10° ESE
Cosmos 2061 Rocket 4.0 04:53:42 10° SSW 04:59:51 68° WNW 05:06:04 10° N
Orbus 7S? 4.2 04:57:09 13° W 05:00:17 58° NNW 05:07:42 10° ENE
USA 306 3.3 04:59:58 11° W 05:03:47 52° N 05:07:49 10° ENE
Cosmos 192 4.4 05:00:26 10° SSW 05:05:24 87° WNW 05:10:24 10° NNE
COSMO-SKYMED 1 2.5 05:02:22 10° S 05:06:42 72° WSW 05:11:04 10° NNW
ALOS 4.0 05:04:31 10° NNW 05:07:05 15° NW 05:09:39 10° W
Cosmos 2082 Rocket 2.7 05:02:14 10° WSW 05:07:30 40° NW 05:12:49 10° NNE
Cosmos 1242 Rocket 2.3 05:06:25 10° NNW 05:09:52 64° W 05:13:14 10° S
Cosmos 1707 Rocket 3.9 05:07:08 10° S 05:11:27 72° E 05:15:48 10° NNE
CZ-2C R/B 3.7 05:07:48 10° SW 05:11:43 21° W 05:15:43 10° NW
Cosmos 1461 2.9 05:07:53 10° SW 05:11:54 66° NW 05:16:08 10° NE
Cosmos 1975 3.2 05:08:16 10° NNW 05:12:04 41° W 05:15:47 10° SSW
Cosmos 1869 Rocket 4.0 05:09:28 10° NNW 05:13:38 39° W 05:17:42 10° SSW
CZ-2C R/B 4.0 05:10:45 10° NNW 05:14:00 18° NW 05:17:11 10° W
Cosmos 2360 Rocket 2.4 05:09:27 10° NNW 05:15:07 80° ENE 05:20:45 10° SSE
NOSS 3-2 (C) 3.5 05:12:36 10° SW 05:18:06 80° SE 05:24:39 10° NE
Cosmos 2344 4.4 05:10:35 10° NW 05:19:06 79° NE 05:30:55 10° SE
NOSS 3-2 (A) 3.5 05:13:49 10° WSW 05:19:24 66° NW 05:26:03 10° NE
SKYMED 3 4.5 05:16:44 10° S 05:20:51 60° WSW 05:24:59 10° NNW
COSMOS 2406 4.2 05:17:07 10° WSW 05:21:59 29° NW 05:26:54 10° NNE
